| time (UTC) | temp F | wind direction | speed MPH | gust MPH | rain 1hr in | rain 24hr in | rain mn in | humidity % | barometer mb |
| 20260507185524 | 61 | 0 | 0.0 | 5.0 | 0.00 | 0.17 | 0.17 | 52 | 1009.4 |
| 20260507185342 | 61 | 87 | 1.0 | 5.0 | 0.00 | 0.17 | 0.17 | 51 | 1009.0 |
| 20260507185022 | 61 | 0 | 0.0 | 5.0 | 0.00 | 0.17 | 0.17 | 50 | 1009.4 |
| 20260507184856 | 61 | 109 | 1.0 | 5.0 | 0.00 | 0.17 | 0.17 | 51 | 1009.1 |
| 20260507184543 | 61 | 102 | 0.0 | 5.0 | 0.00 | 0.17 | 0.17 | 51 | 1009.6 |
| 20260507184337 | 61 | 134 | 0.0 | 5.0 | 0.00 | 0.17 | 0.17 | 52 | 1009.1 |
| 20260507184023 | 61 | 0 | 0.0 | 5.0 | 0.00 | 0.17 | 0.17 | 53 | 1009.6 |
| 20260507183832 | 61 | 179 | 0.0 | 4.0 | 0.00 | 0.17 | 0.17 | 52 | 1009.3 |
| 20260507183524 | 61 | 0 | 0.0 | 4.0 | 0.00 | 0.17 | 0.17 | 55 | 1009.7 |
| 20260507183407 | 61 | 179 | 1.0 | 4.0 | 0.00 | 0.17 | 0.17 | 55 | 1009.4 |
| 20260507183045 | 61 | 0 | 0.0 | 4.0 | 0.00 | 0.17 | 0.17 | 52 | 1009.8 |
| 20260507182859 | 61 | 133 | 0.0 | 4.0 | 0.00 | 0.17 | 0.17 | 51 | 1009.5 |
| 20260507182522 | 61 | 0 | 0.0 | 6.0 | 0.00 | 0.17 | 0.17 | 51 | 1009.9 |
| 20260507182335 | 61 | 254 | 0.0 | 4.0 | 0.00 | 0.17 | 0.17 | 51 | 1009.6 |
| 20260507182025 | 61 | 0 | 0.0 | 6.0 | 0.00 | 0.17 | 0.17 | 51 | 1009.9 |
| 20260507181850 | 61 | 179 | 1.0 | 6.0 | 0.00 | 0.17 | 0.17 | 51 | 1009.6 |
| 20260507181547 | 61 | 0 | 1.0 | 6.0 | 0.00 | 0.17 | 0.17 | 53 | 1010.0 |
| 20260507181341 | 61 | 225 | 2.0 | 5.0 | 0.00 | 0.17 | 0.17 | 54 | 1009.7 |
| 20260507181026 | 61 | 0 | 0.0 | 8.0 | 0.00 | 0.17 | 0.17 | 53 | 1010.0 |
| 20260507180902 | 61 | 182 | 0.0 | 7.0 | 0.00 | 0.17 | 0.17 | 51 | 1009.7 |
| 20260507180521 | 61 | 0 | 0.0 | 8.0 | 0.00 | 0.17 | 0.17 | 50 | 1010.1 |
| 20260507180337 | 61 | 227 | 1.0 | 7.0 | 0.00 | 0.17 | 0.17 | 51 | 1009.8 |
| 20260507180040 | 61 | 0 | 0.0 | 0.0 | 0.00 | 0.17 | 0.17 | 54 | 1010.1 |
| 20260507175835 | 61 | 23 | 0.0 | 0.0 | 0.00 | 0.17 | 0.17 | 51 | 1009.8 |
| 20260507175526 | 61 | 0 | 0.0 | 0.0 | 0.00 | 0.17 | 0.17 | 50 | 1010.1 |
| 20260507175349 | 61 | 30 | 0.0 | 0.0 | 0.00 | 0.17 | 0.17 | 50 | 1009.9 |
| 20260507175025 | 61 | 0 | 0.0 | 5.0 | 0.00 | 0.17 | 0.17 | 50 | 1010.2 |
| 20260507174844 | 61 | 96 | 0.0 | 3.0 | 0.00 | 0.17 | 0.17 | 53 | 1010.0 |
| 20260507174549 | 61 | 0 | 0.0 | 5.0 | 0.00 | 0.17 | 0.17 | 51 | 1010.4 |
| 20260507174338 | 61 | 92 | 0.0 | 5.0 | 0.00 | 0.17 | 0.17 | 54 | 1010.1 |
| 20260507174022 | 61 | 0 | 0.0 | 5.0 | 0.00 | 0.17 | 0.17 | 51 | 1010.4 |
| 20260507173853 | 61 | 109 | 0.0 | 5.0 | 0.00 | 0.17 | 0.17 | 50 | 1010.2 |
| 20260507173522 | 61 | 0 | 0.0 | 5.0 | 0.00 | 0.17 | 0.17 | 54 | 1010.6 |
| 20260507173347 | 61 | 115 | 0.0 | 2.0 | 0.00 | 0.17 | 0.17 | 56 | 1010.4 |
| 20260507173113 | 60 | 0 | 0.0 | 2.0 | 0.00 | 0.17 | 0.17 | 56 | 1010.8 |
| 20260507172842 | 60 | 88 | 0.0 | 2.0 | 0.00 | 0.17 | 0.17 | 54 | 1010.5 |
| 20260507172522 | 60 | 0 | 0.0 | 4.0 | 0.00 | 0.17 | 0.17 | 55 | 1010.8 |
| 20260507172336 | 60 | 126 | 0.0 | 4.0 | 0.00 | 0.17 | 0.17 | 57 | 1010.5 |
| 20260507172022 | 59 | 0 | 0.0 | 4.0 | 0.00 | 0.17 | 0.17 | 51 | 1010.8 |
| 20260507171851 | 60 | 225 | 1.0 | 4.0 | 0.00 | 0.17 | 0.17 | 54 | 1010.7 |
| 20260507171548 | 60 | 0 | 0.0 | 7.0 | 0.00 | 0.17 | 0.17 | 53 | 1010.9 |
| 20260507171346 | 60 | 150 | 0.0 | 6.0 | 0.00 | 0.17 | 0.17 | 53 | 1010.6 |
| 20260507171023 | 60 | 0 | 1.0 | 7.0 | 0.00 | 0.17 | 0.17 | 52 | 1010.9 |
| 20260507170842 | 60 | 169 | 1.0 | 6.0 | 0.00 | 0.17 | 0.17 | 54 | 1010.7 |
| 20260507170522 | 59 | 196 | 0.0 | 4.0 | 0.00 | 0.17 | 0.17 | 53 | 1011.1 |
| 20260507170334 | 59 | 185 | 0.0 | 3.0 | 0.00 | 0.17 | 0.17 | 56 | 1010.9 |
| 20260507170043 | 59 | 0 | 0.0 | 2.0 | 0.00 | 0.17 | 0.17 | 58 | 1011.1 |
| 20260507165851 | 59 | 106 | 0.0 | 2.0 | 0.00 | 0.17 | 0.17 | 56 | 1011.0 |
| 20260507165522 | 58 | 0 | 0.0 | 2.0 | 0.00 | 0.17 | 0.17 | 58 | 1011.2 |
| 20260507165344 | 58 | 151 | 0.0 | 2.0 | 0.00 | 0.17 | 0.17 | 57 | 1010.9 |
| 20260507165022 | 57 | 0 | 0.0 | 0.0 | 0.00 | 0.17 | 0.17 | 57 | 1011.2 |
| 20260507164845 | 58 | 267 | 0.0 | 0.0 | 0.00 | 0.17 | 0.17 | 59 | 1011.0 |
| 20260507164548 | 57 | 0 | 0.0 | 0.0 | 0.00 | 0.17 | 0.17 | 59 | 1011.3 |
| 20260507164337 | 57 | 267 | 0.0 | 0.0 | 0.00 | 0.17 | 0.17 | 60 | 1011.1 |
| 20260507164022 | 57 | 0 | 0.0 | 0.0 | 0.00 | 0.17 | 0.17 | 54 | 1011.4 |
| 20260507163838 | 57 | 265 | 0.0 | 0.0 | 0.00 | 0.17 | 0.17 | 58 | 1011.3 |
| 20260507163522 | 57 | 0 | 0.0 | 0.0 | 0.00 | 0.17 | 0.17 | 59 | 1011.5 |
| 20260507163351 | 57 | 223 | 0.0 | 0.0 | 0.00 | 0.17 | 0.17 | 63 | 1011.4 |
| 20260507163039 | 56 | 0 | 0.0 | 0.0 | 0.00 | 0.17 | 0.17 | 59 | 1011.6 |
| 20260507162906 | 56 | 158 | 0.0 | 0.0 | 0.00 | 0.17 | 0.17 | 64 | 1011.4 |
| 20260507162523 | 55 | 0 | 0.0 | 0.0 | 0.00 | 0.17 | 0.17 | 63 | 1011.7 |
| 20260507162359 | 56 | 87 | 0.0 | 0.0 | 0.00 | 0.17 | 0.17 | 63 | 1011.6 |
| 20260507162023 | 55 | 0 | 0.0 | 0.0 | 0.00 | 0.17 | 0.17 | 60 | 1011.9 |
| 20260507161850 | 55 | 87 | 0.0 | 0.0 | 0.00 | 0.17 | 0.17 | 65 | 1011.6 |
| 20260507161554 | 55 | 0 | 0.0 | 0.0 | 0.00 | 0.17 | 0.17 | 65 | 1011.9 |
| 20260507161345 | 55 | 86 | 0.0 | 0.0 | 0.00 | 0.17 | 0.17 | 65 | 1011.7 |
| 20260507161023 | 55 | 0 | 0.0 | 0.0 | 0.00 | 0.17 | 0.17 | 68 | 1012.1 |
| 20260507160837 | 55 | 86 | 0.0 | 0.0 | 0.00 | 0.17 | 0.17 | 63 | 1011.9 |
| 20260507160524 | 55 | 0 | 0.0 | 0.0 | 0.00 | 0.17 | 0.17 | 61 | 1012.1 |
| 20260507160350 | 55 | 86 | 0.0 | 0.0 | 0.00 | 0.17 | 0.17 | 67 | 1011.8 |
| 20260507160040 | 54 | 0 | 0.0 | 2.0 | 0.00 | 0.17 | 0.17 | 66 | 1012.1 |
| 20260507155845 | 55 | 86 | 0.0 | 2.0 | 0.00 | 0.20 | 0.17 | 66 | 1011.9 |
| 20260507155523 | 54 | 0 | 0.0 | 2.0 | 0.00 | 0.20 | 0.17 | 62 | 1012.2 |
| 20260507155339 | 55 | 86 | 0.0 | 2.0 | 0.00 | 0.20 | 0.17 | 63 | 1012.0 |
| 20260507155024 | 54 | 0 | 0.0 | 0.0 | 0.00 | 0.20 | 0.17 | 71 | 1012.2 |
| 20260507154837 | 55 | 46 | 0.0 | 0.0 | 0.00 | 0.20 | 0.17 | 66 | 1012.0 |
| 20260507154541 | 54 | 0 | 0.0 | 0.0 | 0.00 | 0.20 | 0.17 | 67 | 1012.3 |
| 20260507154333 | 54 | 46 | 0.0 | 0.0 | 0.00 | 0.20 | 0.17 | 67 | 1012.1 |
| 20260507154027 | 54 | 0 | 0.0 | 2.0 | 0.00 | 0.20 | 0.17 | 65 | 1012.4 |
| 20260507153833 | 54 | 45 | 0.0 | 2.0 | 0.00 | 0.20 | 0.17 | 66 | 1012.2 |
| 20260507153525 | 54 | 0 | 0.0 | 2.0 | 0.00 | 0.20 | 0.17 | 65 | 1012.5 |
| 20260507153347 | 54 | 45 | 0.0 | 2.0 | 0.00 | 0.20 | 0.17 | 65 | 1012.2 |
| 20260507153045 | 53 | 0 | 0.0 | 2.0 | 0.00 | 0.20 | 0.17 | 64 | 1012.5 |
| 20260507152845 | 54 | 71 | 0.0 | 0.0 | 0.00 | 0.20 | 0.17 | 66 | 1012.1 |
| 20260507152526 | 53 | 0 | 0.0 | 0.0 | 0.00 | 0.20 | 0.17 | 65 | 1012.4 |
| 20260507152404 | 54 | 71 | 0.0 | 0.0 | 0.00 | 0.20 | 0.17 | 68 | 1012.1 |
| 20260507152025 | 53 | 0 | 0.0 | 0.0 | 0.00 | 0.20 | 0.17 | 66 | 1012.4 |
| 20260507151837 | 53 | 71 | 0.0 | 0.0 | 0.00 | 0.20 | 0.17 | 69 | 1012.2 |
| 20260507151538 | 53 | 0 | 0.0 | 2.0 | 0.00 | 0.20 | 0.17 | 71 | 1012.4 |
| 20260507151352 | 53 | 65 | 0.0 | 2.0 | 0.00 | 0.20 | 0.17 | 66 | 1012.3 |
| 20260507151024 | 52 | 0 | 0.0 | 2.0 | 0.00 | 0.20 | 0.17 | 67 | 1012.6 |
| 20260507150848 | 53 | 58 | 0.0 | 2.0 | 0.00 | 0.20 | 0.17 | 67 | 1012.4 |
| 20260507150524 | 52 | 0 | 0.0 | 0.0 | 0.00 | 0.20 | 0.17 | 71 | 1012.6 |
| 20260507150341 | 53 | 13 | 0.0 | 0.0 | 0.00 | 0.20 | 0.17 | 71 | 1012.4 |
| 20260507150041 | 52 | 0 | 0.0 | 0.0 | 0.00 | 0.20 | 0.17 | 73 | 1012.7 |
| 20260507145843 | 52 | 334 | 0.0 | 0.0 | 0.00 | 0.25 | 0.17 | 74 | 1012.5 |
| 20260507145523 | 52 | 0 | 0.0 | 0.0 | 0.00 | 0.25 | 0.17 | 75 | 1012.8 |
| 20260507145339 | 52 | 17 | 0.0 | 0.0 | 0.00 | 0.25 | 0.17 | 73 | 1012.5 |
| 20260507145024 | 51 | 0 | 0.0 | 0.0 | 0.00 | 0.25 | 0.17 | 72 | 1012.8 |
| 20260507144838 | 52 | 17 | 0.0 | 0.0 | 0.00 | 0.25 | 0.17 | 71 | 1012.5 |
| 20260507144537 | 51 | 0 | 0.0 | 0.0 | 0.00 | 0.25 | 0.17 | 69 | 1012.8 |
| 20260507144413 | 52 | 15 | 0.0 | 0.0 | 0.00 | 0.25 | 0.17 | 76 | 1012.5 |
| 20260507144024 | 51 | 0 | 0.0 | 0.0 | 0.00 | 0.25 | 0.17 | 76 | 1012.9 |
| 20260507143846 | 51 | 15 | 0.0 | 0.0 | 0.00 | 0.25 | 0.17 | 74 | 1012.6 |
| 20260507143524 | 51 | 0 | 0.0 | 0.0 | 0.00 | 0.25 | 0.17 | 75 | 1012.9 |
| 20260507143339 | 51 | 15 | 0.0 | 0.0 | 0.00 | 0.25 | 0.17 | 73 | 1012.7 |
| 20260507143039 | 50 | 0 | 0.0 | 0.0 | 0.00 | 0.25 | 0.17 | 71 | 1013.1 |
| 20260507142853 | 51 | 94 | 0.0 | 0.0 | 0.00 | 0.25 | 0.17 | 75 | 1012.7 |
| 20260507142524 | 50 | 0 | 0.0 | 0.0 | 0.00 | 0.25 | 0.17 | 74 | 1013.0 |
| 20260507142349 | 50 | 103 | 0.0 | 0.0 | 0.00 | 0.25 | 0.17 | 84 | 1012.7 |
| 20260507142023 | 50 | 0 | 0.0 | 0.0 | 0.00 | 0.25 | 0.17 | 83 | 1013.0 |
| 20260507141843 | 50 | 118 | 0.0 | 0.0 | 0.00 | 0.25 | 0.17 | 83 | 1012.8 |
| 20260507141557 | 50 | 0 | 0.0 | 0.0 | 0.00 | 0.25 | 0.17 | 80 | 1013.2 |
| 20260507141337 | 50 | 118 | 0.0 | 0.0 | 0.00 | 0.25 | 0.17 | 81 | 1012.9 |
| 20260507141024 | 50 | 0 | 0.0 | 1.0 | 0.00 | 0.25 | 0.17 | 78 | 1013.3 |
| 20260507140852 | 50 | 118 | 0.0 | 1.0 | 0.00 | 0.25 | 0.17 | 80 | 1012.9 |
| 20260507140525 | 50 | 0 | 0.0 | 1.0 | 0.00 | 0.25 | 0.17 | 84 | 1013.2 |
| 20260507140325 | 50 | 118 | 0.0 | 1.0 | 0.00 | 0.25 | 0.17 | 84 | 1012.9 |
| 20260507140042 | 49 | 0 | 0.0 | 0.0 | 0.00 | 0.25 | 0.17 | 84 | 1013.2 |
| 20260507135845 | 50 | 175 | 0.0 | 0.0 | 0.00 | 0.39 | 0.17 | 82 | 1012.9 |
| 20260507135524 | 49 | 0 | 0.0 | 0.0 | 0.00 | 0.38 | 0.17 | 82 | 1013.4 |
| 20260507135343 | 50 | 175 | 0.0 | 0.0 | 0.00 | 0.39 | 0.17 | 83 | 1013.0 |
| 20260507135024 | 49 | 0 | 0.0 | 0.0 | 0.00 | 0.38 | 0.17 | 81 | 1013.4 |
| 20260507134837 | 50 | 175 | 0.0 | 0.0 | 0.00 | 0.39 | 0.17 | 82 | 1013.0 |
| 20260507134541 | 49 | 0 | 0.0 | 0.0 | 0.00 | 0.38 | 0.17 | 80 | 1013.3 |
| 20260507134334 | 50 | 175 | 0.0 | 0.0 | 0.00 | 0.39 | 0.17 | 84 | 1013.1 |
| 20260507134024 | 49 | 0 | 0.0 | 0.0 | 0.00 | 0.38 | 0.17 | 83 | 1013.2 |
| 20260507133848 | 50 | 73 | 0.0 | 0.0 | 0.00 | 0.39 | 0.17 | 84 | 1012.8 |
| 20260507133524 | 49 | 0 | 0.0 | 0.0 | 0.00 | 0.38 | 0.17 | 87 | 1013.2 |
| 20260507133344 | 50 | 73 | 0.0 | 0.0 | 0.00 | 0.39 | 0.17 | 87 | 1013.0 |
| 20260507133040 | 49 | 0 | 0.0 | 0.0 | 0.00 | 0.38 | 0.17 | 86 | 1013.4 |
| 20260507132845 | 50 | 73 | 0.0 | 0.0 | 0.00 | 0.39 | 0.17 | 87 | 1013.1 |
| 20260507132527 | 49 | 0 | 0.0 | 0.0 | 0.00 | 0.38 | 0.17 | 86 | 1013.4 |
| 20260507132339 | 50 | 73 | 0.0 | 0.0 | 0.00 | 0.39 | 0.17 | 86 | 1013.1 |
| 20260507132024 | 49 | 0 | 0.0 | 0.0 | 0.00 | 0.38 | 0.17 | 87 | 1013.3 |
| 20260507131853 | 50 | 73 | 0.0 | 0.0 | 0.00 | 0.39 | 0.17 | 88 | 1012.9 |
| 20260507131539 | 49 | 0 | 0.0 | 0.0 | 0.00 | 0.38 | 0.17 | 87 | 1013.1 |
| 20260507131334 | 50 | 64 | 0.0 | 0.0 | 0.00 | 0.39 | 0.17 | 89 | 1012.8 |
| 20260507131025 | 49 | 0 | 0.0 | 0.0 | 0.00 | 0.38 | 0.17 | 89 | 1013.3 |
| 20260507130830 | 50 | 64 | 0.0 | 0.0 | 0.00 | 0.39 | 0.17 | 90 | 1012.9 |
| 20260507130526 | 49 | 0 | 0.0 | 0.0 | 0.00 | 0.38 | 0.17 | 90 | 1013.3 |
| 20260507130348 | 50 | 64 | 0.0 | 0.0 | 0.00 | 0.39 | 0.17 | 90 | 1012.9 |
| 20260507130043 | 49 | 0 | 0.0 | 0.0 | 0.00 | 0.38 | 0.17 | 91 | 1013.3 |
| 20260507125844 | 50 | 64 | 0.0 | 0.0 | 0.00 | 0.44 | 0.17 | 91 | 1012.9 |
| 20260507125527 | 49 | 0 | 0.0 | 0.0 | 0.00 | 0.44 | 0.17 | 91 | 1013.4 |
| 20260507125359 | 50 | 64 | 0.0 | 0.0 | 0.00 | 0.44 | 0.17 | 91 | 1013.0 |
| 20260507125024 | 49 | 0 | 0.0 | 0.0 | 0.00 | 0.44 | 0.17 | 91 | 1013.4 |
| 20260507124835 | 50 | 64 | 0.0 | 0.0 | 0.00 | 0.44 | 0.17 | 91 | 1013.0 |
| 20260507124537 | 49 | 0 | 0.0 | 0.0 | 0.00 | 0.44 | 0.17 | 91 | 1013.4 |
| 20260507124353 | 50 | 64 | 327.0 | 0.0 | 0.00 | 0.44 | 0.17 | 92 | 1013.0 |
| 20260507124027 | 49 | 0 | 0.0 | 0.0 | 0.00 | 0.44 | 0.17 | 91 | 1013.3 |
| 20260507123828 | 50 | 0.0 | 0.0 | 0.00 | 0.44 | 0.17 | 91 | 1012.9 | |
| 20260507123526 | 49 | 0 | 0.0 | 0.0 | 0.00 | 0.44 | 0.17 | 90 | 1013.3 |
| 20260507123346 | 50 | 0.0 | 0.0 | 0.00 | 0.44 | 0.17 | 91 | 1012.9 | |
| 20260507123044 | 49 | 0 | 0.0 | 0.0 | 0.00 | 0.44 | 0.17 | 90 | 1013.3 |
| 20260507122844 | 50 | 0.0 | 0.0 | 0.00 | 0.44 | 0.17 | 90 | 1012.8 | |
| 20260507122527 | 49 | 0 | 0.0 | 0.0 | 0.00 | 0.44 | 0.17 | 89 | 1013.2 |
| 20260507122344 | 50 | 0.0 | 0.0 | 0.00 | 0.44 | 0.17 | 90 | 1012.9 | |
| 20260507122027 | 50 | 0.0 | 0.0 | 0.00 | 0.44 | 0.17 | 90 | 1013.2 | |
| 20260507121840 | 50 | 0.0 | 0.0 | 0.00 | 0.44 | 0.17 | 90 | 1012.9 | |
| 20260507121543 | 50 | 0.0 | 0.0 | 0.00 | 0.44 | 0.17 | 89 | 1013.2 | |
| 20260507121334 | 50 | 0.0 | 0.0 | 0.00 | 0.44 | 0.17 | 90 | 1012.9 | |
| 20260507121026 | 50 | 0.0 | 0.0 | 0.00 | 0.44 | 0.17 | 91 | 1013.1 | |
| 20260507120850 | 51 | 0.0 | 0.0 | 0.00 | 0.44 | 0.17 | 92 | 1012.9 | |
| 20260507120526 | 50 | 0.0 | 0.0 | 0.00 | 0.44 | 0.17 | 91 | 1013.1 | |
| 20260507120344 | 51 | 0.0 | 0.0 | 0.00 | 0.44 | 0.17 | 92 | 1012.8 | |
| 20260507120043 | 51 | 0.0 | 0.0 | 0.00 | 0.44 | 0.17 | 92 | 1013.1 | |
| 20260507115838 | 51 | 0.0 | 0.0 | 0.00 | 0.44 | 0.17 | 92 | 1012.6 | |
| 20260507115526 | 51 | 0.0 | 0.0 | 0.00 | 0.44 | 0.17 | 92 | 1012.9 | |
| 20260507115334 | 51 | 0.0 | 0.0 | 0.00 | 0.44 | 0.17 | 93 | 1012.5 | |
| 20260507115026 | 51 | 0.0 | 0.0 | 0.00 | 0.44 | 0.17 | 92 | 1012.7 | |
| 20260507114835 | 52 | 0.0 | 0.0 | 0.00 | 0.44 | 0.17 | 93 | 1012.6 | |
| 20260507114542 | 51 | 0.0 | 0.0 | 0.00 | 0.44 | 0.17 | 93 | 1012.8 | |
| 20260507114411 | 52 | 0.0 | 0.0 | 0.00 | 0.44 | 0.17 | 94 | 1012.6 | |
| 20260507114026 | 51 | 0.0 | 0.0 | 0.00 | 0.44 | 0.17 | 93 | 1012.9 | |
| 20260507113845 | 52 | 0.0 | 0.0 | 0.00 | 0.44 | 0.17 | 94 | 1012.5 | |
| 20260507113526 | 51 | 0.0 | 0.0 | 0.00 | 0.44 | 0.17 | 93 | 1012.6 | |
| 20260507113342 | 52 | 0.0 | 0.0 | 0.00 | 0.44 | 0.17 | 94 | 1012.4 | |
| 20260507113049 | 51 | 0.0 | 0.0 | 0.00 | 0.44 | 0.17 | 93 | 1012.6 | |
| 20260507112842 | 52 | 0.0 | 0.0 | 0.00 | 0.44 | 0.17 | 94 | 1012.4 | |
| 20260507112527 | 51 | 0.0 | 0.0 | 0.00 | 0.44 | 0.17 | 93 | 1012.6 | |
| 20260507112341 | 52 | 0.0 | 0.0 | 0.00 | 0.44 | 0.17 | 94 | 1012.3 | |
| 20260507112027 | 52 | 0.0 | 0.0 | 0.00 | 0.44 | 0.17 | 93 | 1012.5 | |
| 20260507111841 | 52 | 0.0 | 0.0 | 0.00 | 0.44 | 0.17 | 94 | 1012.4 | |
| 20260507111538 | 52 | 0.0 | 0.0 | 0.00 | 0.44 | 0.17 | 93 | 1012.6 | |
| 20260507111342 | 52 | 0.0 | 0.0 | 0.00 | 0.44 | 0.17 | 94 | 1012.5 | |
| 20260507111026 | 52 | 0.0 | 0.0 | 0.00 | 0.44 | 0.17 | 93 | 1012.8 | |
| 20260507110857 | 52 | 0.0 | 0.0 | 0.00 | 0.44 | 0.17 | 94 | 1012.5 | |
| 20260507110528 | 52 | 0.0 | 0.0 | 0.00 | 0.44 | 0.17 | 93 | 1012.8 | |
| 20260507110331 | 52 | 0.0 | 0.0 | 0.00 | 0.44 | 0.17 | 94 | 1012.5 | |
| 20260507110044 | 52 | 0.0 | 0.0 | 0.00 | 0.44 | 0.17 | 93 | 1012.6 | |
| 20260507105909 | 52 | 0.0 | 0.0 | 0.00 | 0.44 | 0.17 | 94 | 1012.4 | |
| 20260507105526 | 52 | 0.0 | 0.0 | 0.00 | 0.44 | 0.17 | 93 | 1012.5 | |
| 20260507105343 | 52 | 0.0 | 0.0 | 0.00 | 0.44 | 0.17 | 94 | 1012.3 | |
| 20260507105026 | 52 | 0.0 | 0.0 | 0.00 | 0.44 | 0.17 | 93 | 1012.6 | |
| 20260507104836 | 52 | 0.0 | 0.0 | 0.00 | 0.44 | 0.17 | 94 | 1012.2 | |
| 20260507104540 | 52 | 0.0 | 0.0 | 0.00 | 0.44 | 0.17 | 93 | 1012.4 | |
| 20260507104350 | 53 | 0.0 | 0.0 | 0.00 | 0.44 | 0.17 | 94 | 1012.1 | |
| 20260507104026 | 52 | 0.0 | 0.0 | 0.00 | 0.44 | 0.17 | 93 | 1012.3 | |
| 20260507103845 | 53 | 0.0 | 0.0 | 0.00 | 0.44 | 0.17 | 94 | 1012.1 | |
| 20260507103527 | 52 | 0.0 | 0.0 | 0.00 | 0.44 | 0.17 | 94 | 1012.3 | |
| 20260507103340 | 53 | 0.0 | 0.0 | 0.00 | 0.44 | 0.17 | 94 | 1012.1 | |
| 20260507103040 | 52 | 0.0 | 0.0 | 0.00 | 0.44 | 0.17 | 94 | 1012.3 | |
| 20260507102831 | 53 | 0.0 | 0.0 | 0.00 | 0.44 | 0.17 | 94 | 1012.1 | |
| 20260507102528 | 52 | 0.0 | 0.0 | 0.00 | 0.44 | 0.17 | 93 | 1012.2 | |
| 20260507102329 | 53 | 0.0 | 0.0 | 0.00 | 0.44 | 0.17 | 94 | 1012.0 | |
| 20260507102028 | 52 | 0.0 | 0.0 | 0.00 | 0.44 | 0.17 | 93 | 1012.2 | |
| 20260507101828 | 53 | 0.0 | 0.0 | 0.00 | 0.44 | 0.17 | 94 | 1011.9 | |
| 20260507101548 | 52 | 0.0 | 0.0 | 0.00 | 0.44 | 0.17 | 93 | 1012.1 | |
| 20260507101346 | 53 | 0.0 | 0.0 | 0.00 | 0.44 | 0.17 | 94 | 1011.9 | |
| 20260507101026 | 52 | 0.0 | 0.0 | 0.00 | 0.44 | 0.17 | 94 | 1012.0 | |
| 20260507100829 | 53 | 0.0 | 0.0 | 0.00 | 0.44 | 0.17 | 94 | 1011.8 | |
| 20260507100525 | 52 | 0.0 | 0.0 | 0.00 | 0.44 | 0.17 | 94 | 1012.1 | |
| 20260507100348 | 53 | 0.0 | 0.0 | 0.00 | 0.44 | 0.17 | 94 | 1011.8 | |
| 20260507100040 | 52 | 0.0 | 0.0 | 0.00 | 0.44 | 0.17 | 93 | 1011.9 | |
| 20260507095838 | 53 | 0.0 | 0.0 | 0.00 | 0.44 | 0.17 | 94 | 1011.7 | |
| 20260507095527 | 52 | 0.0 | 0.0 | 0.00 | 0.44 | 0.17 | 93 | 1011.9 | |
| 20260507095337 | 53 | 0.0 | 0.0 | 0.00 | 0.44 | 0.17 | 94 | 1011.8 | |
| 20260507095027 | 52 | 0.0 | 0.0 | 0.00 | 0.44 | 0.17 | 93 | 1012.1 | |
| 20260507094836 | 53 | 0.0 | 0.0 | 0.00 | 0.44 | 0.17 | 94 | 1011.8 | |
| 20260507094550 | 52 | 0.0 | 0.0 | 0.00 | 0.44 | 0.17 | 93 | 1011.9 | |
| 20260507094328 | 53 | 0.0 | 0.0 | 0.00 | 0.44 | 0.17 | 94 | 1011.8 | |
| 20260507094028 | 52 | 0.0 | 0.0 | 0.00 | 0.44 | 0.17 | 93 | 1012.1 | |
| 20260507093829 | 53 | 0.0 | 0.0 | 0.00 | 0.44 | 0.17 | 94 | 1011.8 | |
| 20260507093529 | 52 | 0.0 | 0.0 | 0.00 | 0.44 | 0.17 | 93 | 1012.1 | |
| 20260507093345 | 53 | 0.0 | 0.0 | 0.00 | 0.44 | 0.17 | 94 | 1011.8 | |
| 20260507093042 | 52 | 0.0 | 0.0 | 0.00 | 0.44 | 0.17 | 93 | 1011.8 | |
| 20260507092844 | 53 | 0.0 | 0.0 | 0.00 | 0.44 | 0.17 | 94 | 1011.6 | |
| 20260507092524 | 52 | 0.0 | 0.0 | 0.00 | 0.44 | 0.17 | 93 | 1011.7 | |
| 20260507092344 | 53 | 0.0 | 0.0 | 0.00 | 0.44 | 0.17 | 94 | 1011.4 | |
| 20260507092025 | 52 | 0.0 | 0.0 | 0.00 | 0.44 | 0.17 | 93 | 1011.6 | |
| 20260507091903 | 53 | 0.0 | 0.0 | 0.00 | 0.44 | 0.17 | 94 | 1011.4 | |
| 20260507091539 | 52 | 0.0 | 0.0 | 0.00 | 0.44 | 0.17 | 93 | 1011.8 | |
| 20260507091341 | 53 | 0.0 | 0.0 | 0.00 | 0.44 | 0.17 | 94 | 1011.5 | |
| 20260507091025 | 52 | 0.0 | 0.0 | 0.00 | 0.44 | 0.17 | 93 | 1011.8 | |
| 20260507090838 | 53 | 0.0 | 0.0 | 0.00 | 0.44 | 0.17 | 94 | 1011.6 | |
| 20260507090522 | 52 | 0.0 | 0.0 | 0.00 | 0.44 | 0.17 | 93 | 1011.8 | |
| 20260507090336 | 53 | 0.0 | 0.0 | 0.00 | 0.44 | 0.17 | 94 | 1011.6 | |
| 20260507090043 | 52 | 0.0 | 0.0 | 0.00 | 0.44 | 0.17 | 93 | 1012.0 | |
| 20260507085836 | 53 | 0.0 | 0.0 | 0.00 | 0.44 | 0.17 | 94 | 1011.7 | |
| 20260507085522 | 52 | 0.0 | 0.0 | 0.00 | 0.44 | 0.17 | 93 | 1012.0 | |
| 20260507085356 | 53 | 0.0 | 0.0 | 0.00 | 0.44 | 0.17 | 94 | 1011.7 | |
| 20260507085023 | 52 | 0.0 | 0.0 | 0.00 | 0.44 | 0.17 | 93 | 1011.7 | |
| 20260507084834 | 53 | 0.0 | 0.0 | 0.00 | 0.44 | 0.17 | 94 | 1011.6 | |
| 20260507084537 | 52 | 0.0 | 0.0 | 0.00 | 0.44 | 0.17 | 93 | 1011.7 | |
| 20260507084333 | 53 | 0.0 | 0.0 | 0.00 | 0.44 | 0.17 | 94 | 1011.5 | |
| 20260507084023 | 52 | 0.0 | 0.0 | 0.00 | 0.44 | 0.17 | 93 | 1011.8 | |
| 20260507083837 | 53 | 0.0 | 0.0 | 0.00 | 0.44 | 0.17 | 94 | 1011.5 | |
| 20260507083523 | 52 | 0.0 | 0.0 | 0.00 | 0.44 | 0.17 | 93 | 1011.7 | |
| 20260507083355 | 53 | 0.0 | 0.0 | 0.00 | 0.44 | 0.17 | 93 | 1011.4 | |
| 20260507083037 | 52 | 0.0 | 0.0 | 0.00 | 0.44 | 0.17 | 93 | 1011.6 | |
| 20260507082853 | 53 | 0.0 | 0.0 | 0.00 | 0.44 | 0.17 | 93 | 1011.4 | |
| 20260507082522 | 52 | 0.0 | 0.0 | 0.00 | 0.44 | 0.17 | 93 | 1011.6 | |
| 20260507082330 | 53 | 0.0 | 0.0 | 0.00 | 0.44 | 0.17 | 93 | 1011.3 | |
| 20260507082024 | 52 | 0.0 | 0.0 | 0.00 | 0.44 | 0.17 | 93 | 1011.6 | |
| 20260507081830 | 53 | 0.0 | 0.0 | 0.00 | 0.44 | 0.17 | 93 | 1011.2 | |
| 20260507081544 | 52 | 0.0 | 0.0 | 0.00 | 0.44 | 0.17 | 92 | 1011.4 | |
| 20260507081328 | 53 | 0.0 | 0.0 | 0.00 | 0.44 | 0.17 | 93 | 1011.0 | |
| 20260507081026 | 52 | 0.0 | 0.0 | 0.00 | 0.44 | 0.17 | 92 | 1011.2 | |
| 20260507080849 | 53 | 0.0 | 0.0 | 0.00 | 0.44 | 0.17 | 93 | 1010.8 | |
| 20260507080522 | 52 | 0.0 | 0.0 | 0.00 | 0.44 | 0.17 | 92 | 1011.1 | |
| 20260507080344 | 53 | 0.0 | 0.0 | 0.00 | 0.44 | 0.17 | 93 | 1010.9 | |
| 20260507080041 | 52 | 0.0 | 0.0 | 0.00 | 0.44 | 0.17 | 92 | 1011.1 | |
| 20260507075839 | 53 | 0.0 | 0.0 | 0.00 | 0.44 | 0.17 | 93 | 1010.8 | |
| 20260507075522 | 52 | 0.0 | 0.0 | 0.00 | 0.44 | 0.17 | 92 | 1011.1 | |
| 20260507075332 | 53 | 0.0 | 0.0 | 0.00 | 0.44 | 0.17 | 92 | 1010.9 | |
| 20260507075023 | 52 | 0.0 | 0.0 | 0.00 | 0.44 | 0.17 | 92 | 1011.1 | |
| 20260507074852 | 53 | 0.0 | 0.0 | 0.00 | 0.44 | 0.17 | 92 | 1010.9 | |
| 20260507074540 | 52 | 0.0 | 0.0 | 0.00 | 0.44 | 0.17 | 92 | 1011.0 | |
| 20260507074328 | 53 | 0.0 | 0.0 | 0.00 | 0.44 | 0.17 | 92 | 1010.7 | |
| 20260507074026 | 53 | 0.0 | 0.0 | 0.00 | 0.44 | 0.17 | 91 | 1011.0 | |
| 20260507073848 | 53 | 0.0 | 0.0 | 0.00 | 0.44 | 0.17 | 92 | 1010.6 | |
| 20260507073522 | 53 | 0.0 | 0.0 | 0.00 | 0.44 | 0.17 | 91 | 1010.9 | |
| 20260507073347 | 53 | 0.0 | 0.0 | 0.00 | 0.44 | 0.17 | 92 | 1010.6 | |
| 20260507073043 | 53 | 0.0 | 0.0 | 0.00 | 0.44 | 0.17 | 92 | 1010.9 | |
| 20260507072840 | 54 | 0.0 | 0.0 | 0.00 | 0.44 | 0.17 | 92 | 1010.7 | |
| 20260507072522 | 53 | 0.0 | 0.0 | 0.00 | 0.44 | 0.17 | 91 | 1011.0 | |
| 20260507072333 | 54 | 0.0 | 0.0 | 0.00 | 0.44 | 0.17 | 92 | 1010.8 | |
| 20260507072022 | 53 | 0.0 | 0.0 | 0.00 | 0.44 | 0.17 | 91 | 1011.0 | |
| 20260507071848 | 54 | 0.0 | 0.0 | 0.00 | 0.44 | 0.17 | 92 | 1010.8 | |
| 20260507071540 | 53 | 0.0 | 0.0 | 0.00 | 0.44 | 0.17 | 92 | 1010.9 | |
| 20260507071341 | 54 | 0.0 | 0.0 | 0.00 | 0.44 | 0.17 | 92 | 1010.6 | |
| 20260507071023 | 54 | 0.0 | 0.0 | 0.00 | 0.44 | 0.17 | 92 | 1010.8 | |
| 20260507070855 | 54 | 0.0 | 0.0 | 0.00 | 0.44 | 0.17 | 92 | 1010.6 | |
| 20260507070522 | 54 | 0.0 | 0.0 | 0.00 | 0.44 | 0.17 | 92 | 1010.9 | |
| 20260507070328 | 55 | 0.0 | 0.0 | 0.00 | 0.44 | 0.17 | 92 | 1010.6 | |
| 20260507070042 | 54 | 0.0 | 0.0 | 0.00 | 0.44 | 0.17 | 92 | 1011.0 | |
| 20260507065833 | 55 | 0.0 | 0.0 | 0.00 | 0.44 | 0.17 | 93 | 1010.7 | |
| 20260507065524 | 54 | 0.0 | 0.0 | 0.00 | 0.44 | 0.17 | 92 | 1011.0 | |
| 20260507065348 | 55 | 0.0 | 0.0 | 0.00 | 0.44 | 0.17 | 93 | 1010.7 | |
| 20260507065022 | 54 | 0.0 | 0.0 | 0.01 | 0.44 | 0.17 | 92 | 1011.0 | |
| 20260507064905 | 55 | 0.0 | 0.0 | 0.01 | 0.44 | 0.17 | 93 | 1010.8 | |
| 20260507064545 | 54 | 0.0 | 0.0 | 0.01 | 0.44 | 0.17 | 92 | 1011.0 | |
| 20260507064358 | 55 | 0.0 | 0.0 | 0.01 | 0.44 | 0.17 | 93 | 1010.7 | |
| 20260507064023 | 54 | 0.0 | 0.0 | 0.01 | 0.44 | 0.17 | 92 | 1011.0 | |
| 20260507063855 | 55 | 0.0 | 0.0 | 0.01 | 0.44 | 0.17 | 93 | 1010.6 | |
| 20260507063523 | 54 | 0.0 | 0.0 | 0.01 | 0.44 | 0.17 | 92 | 1011.0 | |
| 20260507063327 | 55 | 0.0 | 0.0 | 0.01 | 0.44 | 0.17 | 93 | 1010.7 | |
| 20260507063052 | 55 | 0.0 | 0.0 | 0.02 | 0.44 | 0.17 | 92 | 1011.1 | |
| 20260507062848 | 55 | 0.0 | 0.0 | 0.02 | 0.44 | 0.17 | 92 | 1010.8 | |
| 20260507062526 | 55 | 0.0 | 0.0 | 0.02 | 0.44 | 0.17 | 92 | 1011.2 | |
| 20260507062344 | 55 | 0.0 | 0.0 | 0.02 | 0.44 | 0.17 | 92 | 1010.8 | |
| 20260507062022 | 55 | 0.0 | 0.0 | 0.02 | 0.44 | 0.17 | 92 | 1010.9 | |
| 20260507061844 | 55 | 0.0 | 0.0 | 0.02 | 0.44 | 0.17 | 92 | 1010.5 | |
| 20260507061540 | 55 | 0.0 | 0.0 | 0.02 | 0.44 | 0.17 | 92 | 1010.8 | |
| 20260507061029 | 55 | 0.0 | 0.0 | 0.02 | 0.44 | 0.17 | 92 | 1010.8 | |
| 20260507060904 | 55 | 0.0 | 0.0 | 0.02 | 0.44 | 0.17 | 92 | 1010.6 | |
| 20260507060523 | 55 | 0.0 | 0.0 | 0.02 | 0.44 | 0.17 | 92 | 1010.9 | |
| 20260507060357 | 56 | 0.0 | 0.0 | 0.02 | 0.44 | 0.17 | 92 | 1010.5 | |
| 20260507060037 | 55 | 0.0 | 0.0 | 0.02 | 0.44 | 0.17 | 92 | 1010.9 | |
| 20260507055851 | 56 | 0.0 | 0.0 | 0.03 | 0.44 | 0.17 | 92 | 1010.6 | |
| 20260507055522 | 55 | 0.0 | 0.0 | 0.04 | 0.44 | 0.17 | 92 | 1010.9 | |
| 20260507055403 | 56 | 0.0 | 0.0 | 0.04 | 0.43 | 0.16 | 92 | 1010.6 | |
| 20260507055024 | 55 | 0.0 | 0.0 | 0.07 | 0.43 | 0.16 | 91 | 1011.2 | |
| 20260507054839 | 56 | 0.0 | 0.0 | 0.09 | 0.43 | 0.16 | 92 | 1010.8 | |
| 20260507054540 | 55 | 0.0 | 0.0 | 0.10 | 0.43 | 0.16 | 91 | 1011.0 | |
| 20260507054028 | 55 | 0.0 | 0.0 | 0.16 | 0.43 | 0.16 | 91 | 1011.0 | |
| 20260507053837 | 56 | 0.0 | 0.0 | 0.16 | 0.43 | 0.16 | 92 | 1010.7 | |
| 20260507053526 | 56 | 0.0 | 0.0 | 0.16 | 0.43 | 0.16 | 91 | 1011.3 | |
| 20260507053338 | 56 | 0.0 | 0.0 | 0.16 | 0.43 | 0.16 | 91 | 1010.8 | |
| 20260507053039 | 56 | 0.0 | 0.0 | 0.15 | 0.42 | 0.15 | 91 | 1011.3 | |
| 20260507052831 | 56 | 0.0 | 0.0 | 0.15 | 0.42 | 0.15 | 91 | 1010.7 | |
| 20260507052523 | 56 | 0.0 | 0.0 | 0.15 | 0.42 | 0.15 | 91 | 1011.1 | |
| 20260507052409 | 56 | 0.0 | 0.0 | 0.15 | 0.42 | 0.15 | 91 | 1010.8 | |
| 20260507052026 | 56 | 0.0 | 0.0 | 0.15 | 0.42 | 0.15 | 90 | 1011.3 | |
| 20260507051842 | 57 | 0.0 | 0.0 | 0.15 | 0.42 | 0.15 | 90 | 1010.7 | |
| 20260507051539 | 56 | 0.0 | 0.0 | 0.15 | 0.42 | 0.15 | 90 | 1010.9 | |
| 20260507051336 | 57 | 0.0 | 0.0 | 0.15 | 0.42 | 0.15 | 90 | 1010.6 | |
| 20260507051028 | 56 | 0.0 | 0.0 | 0.15 | 0.42 | 0.15 | 89 | 1011.0 | |
| 20260507050851 | 57 | 0.0 | 0.0 | 0.15 | 0.42 | 0.15 | 89 | 1010.8 | |
| 20260507050525 | 57 | 0.0 | 0.0 | 0.15 | 0.42 | 0.15 | 88 | 1011.1 | |
| 20260507050344 | 57 | 0.0 | 0.0 | 0.15 | 0.42 | 0.15 | 88 | 1010.7 | |
| 20260507050038 | 57 | 0.0 | 0.0 | 0.15 | 0.42 | 0.15 | 87 | 1011.2 | |
| 20260507045901 | 58 | 0.0 | 0.0 | 0.14 | 0.41 | 0.14 | 88 | 1011.1 | |
| 20260507045527 | 58 | 0.0 | 0.0 | 0.13 | 0.40 | 0.13 | 87 | 1011.4 | |
| 20260507045338 | 58 | 0.0 | 0.0 | 0.12 | 0.39 | 0.12 | 87 | 1011.2 | |
| 20260507045027 | 58 | 0.0 | 0.0 | 0.09 | 0.36 | 0.09 | 86 | 1011.6 | |
| 20260507044830 | 59 | 0.0 | 0.0 | 0.07 | 0.34 | 0.07 | 85 | 1011.1 | |
| 20260507044546 | 58 | 0.0 | 0.0 | 0.05 | 0.32 | 0.05 | 84 | 1011.3 | |
| 20260507044411 | 59 | 0.0 | 0.0 | 0.03 | 0.30 | 0.03 | 83 | 1010.9 | |
| 20260507044026 | 59 | 0.0 | 0.0 | 0.00 | 0.27 | 0.00 | 81 | 1011.1 | |
| 20260507043845 | 59 | 0.0 | 0.0 | 0.00 | 0.27 | 0.00 | 81 | 1010.5 | |
| 20260507043526 | 59 | 0.0 | 0.0 | 0.00 | 0.27 | 0.00 | 80 | 1010.9 | |
| 20260507043343 | 59 | 0.0 | 0.0 | 0.00 | 0.27 | 0.00 | 80 | 1010.3 | |
| 20260507043041 | 59 | 0.0 | 0.0 | 0.00 | 0.27 | 0.00 | 80 | 1011.0 | |
| 20260507042856 | 60 | 0.0 | 0.0 | 0.00 | 0.27 | 0.00 | 79 | 1010.8 | |
| 20260507042527 | 59 | 0.0 | 0.0 | 0.00 | 0.27 | 0.00 | 79 | 1011.2 | |
| 20260507042333 | 60 | 0.0 | 0.0 | 0.00 | 0.27 | 0.00 | 79 | 1010.9 | |
| 20260507042027 | 60 | 0.0 | 0.0 | 0.00 | 0.27 | 0.00 | 78 | 1011.4 | |
| 20260507041833 | 60 | 0.0 | 0.0 | 0.00 | 0.27 | 0.00 | 78 | 1011.1 | |
| 20260507041544 | 60 | 0.0 | 0.0 | 0.00 | 0.27 | 0.00 | 78 | 1011.3 | |
| 20260507041331 | 61 | 0.0 | 0.0 | 0.00 | 0.27 | 0.00 | 78 | 1011.0 | |
| 20260507041027 | 60 | 0.0 | 0.0 | 0.00 | 0.27 | 0.00 | 77 | 1011.1 | |
| 20260507040830 | 61 | 0.0 | 0.0 | 0.00 | 0.27 | 0.00 | 78 | 1010.8 | |
| 20260507040527 | 60 | 0.0 | 0.0 | 0.00 | 0.27 | 0.00 | 78 | 1011.0 | |
| 20260507040349 | 61 | 0.0 | 0.0 | 0.00 | 0.27 | 0.00 | 78 | 1010.7 | |
| 20260507040037 | 60 | 0.0 | 0.0 | 0.00 | 0.27 | 0.00 | 77 | 1010.9 | |
| 20260507035847 | 61 | 0.0 | 0.0 | 0.00 | 0.27 | 0.27 | 78 | 1010.6 | |
| 20260507035526 | 61 | 0.0 | 0.0 | 0.00 | 0.27 | 0.27 | 78 | 1010.7 | |
| 20260507035339 | 61 | 0.0 | 0.0 | 0.00 | 0.27 | 0.27 | 79 | 1010.2 | |
| 20260507035027 | 61 | 0.0 | 0.0 | 0.00 | 0.27 | 0.27 | 77 | 1010.7 | |
| 20260507034834 | 61 | 0.0 | 0.0 | 0.00 | 0.27 | 0.27 | 78 | 1010.2 | |
| 20260507034557 | 61 | 0.0 | 0.0 | 0.00 | 0.27 | 0.27 | 78 | 1010.6 | |
| 20260507034326 | 61 | 0.0 | 0.0 | 0.00 | 0.27 | 0.27 | 79 | 1010.1 | |
| 20260507034027 | 61 | 0.0 | 0.0 | 0.00 | 0.27 | 0.27 | 77 | 1010.6 | |
| 20260507033906 | 62 | 0.0 | 0.0 | 0.00 | 0.27 | 0.27 | 77 | 1010.3 | |
| 20260507033526 | 61 | 0.0 | 0.0 | 0.00 | 0.27 | 0.27 | 78 | 1010.7 | |
| 20260507033342 | 62 | 0.0 | 0.0 | 0.00 | 0.27 | 0.27 | 78 | 1010.3 | |
| 20260507033101 | 62 | 0.0 | 0.0 | 0.00 | 0.27 | 0.27 | 77 | 1010.5 | |
| 20260507032838 | 62 | 0.0 | 0.0 | 0.00 | 0.27 | 0.27 | 78 | 1010.3 | |
| 20260507032527 | 62 | 0.0 | 0.0 | 0.00 | 0.27 | 0.27 | 77 | 1010.7 | |
| 20260507032350 | 62 | 0.0 | 0.0 | 0.00 | 0.27 | 0.27 | 78 | 1010.5 | |
| 20260507032027 | 62 | 0.0 | 0.0 | 0.00 | 0.27 | 0.27 | 78 | 1010.7 | |
| 20260507031848 | 62 | 0.0 | 0.0 | 0.00 | 0.27 | 0.27 | 79 | 1010.3 | |
| 20260507031540 | 62 | 0.0 | 0.0 | 0.00 | 0.27 | 0.27 | 78 | 1010.6 | |
| 20260507031327 | 62 | 0.0 | 0.0 | 0.00 | 0.27 | 0.27 | 79 | 1010.3 | |
| 20260507031027 | 62 | 0.0 | 0.0 | 0.00 | 0.27 | 0.27 | 78 | 1010.5 | |
| 20260507030826 | 63 | 0.0 | 0.0 | 0.00 | 0.27 | 0.27 | 78 | 1010.2 | |
| 20260507030527 | 62 | 0.0 | 0.0 | 0.00 | 0.27 | 0.27 | 78 | 1010.4 | |
| 20260507030407 | 63 | 0.0 | 0.0 | 0.00 | 0.27 | 0.27 | 78 | 1010.1 | |
| 20260507030038 | 62 | 0.0 | 0.0 | 0.00 | 0.27 | 0.27 | 77 | 1010.2 | |
| 20260507025843 | 63 | 0.0 | 0.0 | 0.00 | 0.27 | 0.27 | 79 | 1009.7 | |
| 20260507025525 | 62 | 0.0 | 0.0 | 0.00 | 0.27 | 0.27 | 78 | 1010.0 | |
| 20260507025338 | 63 | 0.0 | 0.0 | 0.00 | 0.27 | 0.27 | 78 | 1009.7 | |
| 20260507025027 | 62 | 0.0 | 0.0 | 0.00 | 0.27 | 0.27 | 78 | 1010.2 | |
| 20260507024834 | 63 | 0.0 | 0.0 | 0.00 | 0.27 | 0.27 | 79 | 1009.9 | |
| 20260507024545 | 63 | 0.0 | 0.0 | 0.00 | 0.27 | 0.27 | 78 | 1010.2 | |
| 20260507024353 | 63 | 0.0 | 0.0 | 0.00 | 0.27 | 0.27 | 78 | 1009.9 | |
| 20260507024024 | 63 | 0.0 | 0.0 | 0.00 | 0.27 | 0.27 | 78 | 1010.3 | |
| 20260507023849 | 63 | 0.0 | 0.0 | 0.00 | 0.27 | 0.27 | 78 | 1010.1 | |
| 20260507023524 | 63 | 0.0 | 0.0 | 0.00 | 0.27 | 0.27 | 77 | 1010.2 | |
| 20260507023344 | 63 | 0.0 | 0.0 | 0.00 | 0.27 | 0.27 | 77 | 1009.8 | |
| 20260507023037 | 63 | 0.0 | 0.0 | 0.00 | 0.27 | 0.27 | 76 | 1010.0 | |
| 20260507022838 | 64 | 0.0 | 0.0 | 0.00 | 0.27 | 0.27 | 77 | 1009.7 | |
| 20260507022525 | 63 | 0.0 | 0.0 | 0.00 | 0.27 | 0.27 | 77 | 1010.1 | |
| 20260507022335 | 64 | 0.0 | 0.0 | 0.00 | 0.27 | 0.27 | 78 | 1009.8 | |
| 20260507022025 | 63 | 0.0 | 0.0 | 0.00 | 0.27 | 0.27 | 77 | 1010.1 | |
| 20260507021851 | 64 | 0.0 | 0.0 | 0.00 | 0.27 | 0.27 | 79 | 1009.9 | |
| 20260507021538 | 64 | 0.0 | 0.0 | 0.00 | 0.27 | 0.27 | 78 | 1010.2 | |
| 20260507021346 | 64 | 0.0 | 0.0 | 0.00 | 0.27 | 0.27 | 80 | 1009.8 | |
| 20260507021025 | 64 | 0.0 | 0.0 | 0.00 | 0.27 | 0.27 | 79 | 1010.0 | |
| 20260507020838 | 64 | 0.0 | 0.0 | 0.00 | 0.27 | 0.27 | 80 | 1009.6 | |
| 20260507020524 | 64 | 0.0 | 0.0 | 0.00 | 0.27 | 0.27 | 79 | 1009.9 | |
| 20260507020353 | 64 | 0.0 | 0.0 | 0.00 | 0.27 | 0.27 | 79 | 1009.4 | |
| 20260507020040 | 64 | 0.0 | 0.0 | 0.00 | 0.27 | 0.27 | 79 | 1009.7 | |
| 20260507015826 | 64 | 0.0 | 0.0 | 0.00 | 0.27 | 0.27 | 80 | 1009.3 | |
| 20260507015524 | 64 | 0.0 | 0.0 | 0.00 | 0.27 | 0.27 | 79 | 1009.6 | |
| 20260507015345 | 65 | 0.0 | 0.0 | 0.00 | 0.27 | 0.27 | 80 | 1009.3 | |
| 20260507015026 | 64 | 0.0 | 0.0 | 0.00 | 0.27 | 0.27 | 80 | 1009.8 | |
| 20260507014844 | 65 | 0.0 | 0.0 | 0.00 | 0.27 | 0.27 | 81 | 1009.5 | |
| 20260507014538 | 64 | 0.0 | 0.0 | 0.00 | 0.27 | 0.27 | 79 | 1009.8 | |
| 20260507014344 | 65 | 0.0 | 0.0 | 0.00 | 0.27 | 0.27 | 79 | 1009.4 | |
| 20260507014024 | 65 | 0.0 | 0.0 | 0.00 | 0.27 | 0.27 | 80 | 1009.8 | |
| 20260507013842 | 65 | 0.0 | 0.0 | 0.00 | 0.27 | 0.27 | 80 | 1009.5 | |
| 20260507013524 | 65 | 0.0 | 0.0 | 0.00 | 0.27 | 0.27 | 79 | 1010.0 | |
| 20260507013342 | 65 | 0.0 | 0.0 | 0.00 | 0.27 | 0.27 | 80 | 1009.7 | |
| 20260507013039 | 65 | 0.0 | 0.0 | 0.00 | 0.27 | 0.27 | 80 | 1010.1 | |
| 20260507012840 | 66 | 0.0 | 0.0 | 0.00 | 0.27 | 0.27 | 81 | 1009.7 | |
| 20260507012523 | 65 | 0.0 | 0.0 | 0.00 | 0.27 | 0.27 | 81 | 1010.0 | |
| 20260507012338 | 66 | 0.0 | 0.0 | 0.00 | 0.27 | 0.27 | 81 | 1009.6 | |
| 20260507012025 | 65 | 0.0 | 0.0 | 0.00 | 0.27 | 0.27 | 82 | 1009.8 | |
| 20260507011842 | 66 | 0.0 | 0.0 | 0.00 | 0.27 | 0.27 | 82 | 1009.4 | |
| 20260507011539 | 65 | 0.0 | 0.0 | 0.00 | 0.27 | 0.27 | 82 | 1009.9 | |
| 20260507011358 | 66 | 0.0 | 0.0 | 0.00 | 0.27 | 0.27 | 83 | 1009.5 | |
| 20260507011024 | 65 | 0.0 | 0.0 | 0.00 | 0.27 | 0.27 | 82 | 1009.8 | |
| 20260507010856 | 66 | 0.0 | 0.0 | 0.00 | 0.27 | 0.27 | 84 | 1009.3 | |
| 20260507010528 | 66 | 0.0 | 0.0 | 0.00 | 0.27 | 0.27 | 84 | 1009.8 | |
| 20260507010349 | 66 | 0.0 | 0.0 | 0.00 | 0.27 | 0.27 | 85 | 1009.5 | |
| 20260507010040 | 66 | 0.0 | 0.0 | 0.00 | 0.27 | 0.27 | 86 | 1010.1 | |
| 20260507005844 | 66 | 0.0 | 0.0 | 0.00 | 0.27 | 0.27 | 86 | 1009.6 | |
| 20260507005525 | 66 | 0.0 | 0.0 | 0.00 | 0.27 | 0.27 | 86 | 1010.0 | |
| 20260507005338 | 66 | 0.0 | 0.0 | 0.00 | 0.27 | 0.27 | 86 | 1009.4 | |
| 20260507005024 | 66 | 0.0 | 0.0 | 0.00 | 0.27 | 0.27 | 85 | 1009.7 | |
| 20260507004852 | 66 | 0.0 | 0.0 | 0.00 | 0.27 | 0.27 | 86 | 1009.2 | |
| 20260507004541 | 66 | 0.0 | 0.0 | 0.00 | 0.27 | 0.27 | 85 | 1009.6 | |
| 20260507004331 | 67 | 0.0 | 0.0 | 0.00 | 0.27 | 0.27 | 85 | 1009.0 | |
| 20260507004024 | 66 | 0.0 | 0.0 | 0.00 | 0.27 | 0.27 | 85 | 1009.4 | |
| 20260507003830 | 67 | 0.0 | 0.0 | 0.00 | 0.27 | 0.27 | 85 | 1009.0 | |
| 20260507003526 | 66 | 0.0 | 0.0 | 0.00 | 0.27 | 0.27 | 84 | 1009.4 | |
| 20260507003331 | 67 | 0.0 | 0.0 | 0.00 | 0.27 | 0.27 | 85 | 1009.0 | |
| 20260507003038 | 66 | 0.0 | 0.0 | 0.00 | 0.27 | 0.27 | 84 | 1009.5 | |
| 20260507002828 | 67 | 0.0 | 0.0 | 0.00 | 0.27 | 0.27 | 85 | 1008.9 | |
| 20260507002524 | 66 | 0.0 | 0.0 | 0.00 | 0.27 | 0.27 | 84 | 1009.3 | |
| 20260507002328 | 67 | 0.0 | 0.0 | 0.00 | 0.27 | 0.27 | 84 | 1008.9 | |
| 20260507002024 | 66 | 0.0 | 0.0 | 0.00 | 0.27 | 0.27 | 84 | 1009.1 | |
| 20260507001827 | 67 | 0.0 | 0.0 | 0.00 | 0.27 | 0.27 | 84 | 1008.8 | |
| 20260507001603 | 66 | 0.0 | 0.0 | 0.00 | 0.27 | 0.27 | 84 | 1009.2 | |
| 20260507001326 | 67 | 0.0 | 0.0 | 0.00 | 0.27 | 0.27 | 84 | 1008.7 | |
| 20260507001023 | 66 | 0.0 | 0.0 | 0.00 | 0.27 | 0.27 | 83 | 1009.0 | |
| 20260507000845 | 67 | 0.0 | 0.0 | 0.00 | 0.27 | 0.27 | 84 | 1008.6 | |
| 20260507000524 | 66 | 0.0 | 0.0 | 0.00 | 0.27 | 0.27 | 84 | 1009.1 | |
| 20260507000345 | 67 | 0.0 | 0.0 | 0.00 | 0.27 | 0.27 | 84 | 1008.6 | |
| 20260507000037 | 66 | 0.0 | 0.0 | 0.00 | 0.27 | 0.27 | 83 | 1009.1 | |
| 20260506235844 | 67 | 0.0 | 0.0 | 0.00 | 0.27 | 0.27 | 84 | 1008.6 | |
| 20260506235523 | 67 | 0.0 | 0.0 | 0.00 | 0.27 | 0.27 | 84 | 1009.0 | |
| 20260506235327 | 67 | 0.0 | 0.0 | 0.00 | 0.27 | 0.27 | 84 | 1008.5 | |
| 20260506235025 | 67 | 0.0 | 0.0 | 0.00 | 0.27 | 0.27 | 84 | 1009.0 | |
| 20260506234826 | 67 | 0.0 | 0.0 | 0.00 | 0.27 | 0.27 | 84 | 1008.5 | |
| 20260506234547 | 67 | 0.0 | 0.0 | 0.00 | 0.27 | 0.27 | 84 | 1009.1 | |
| 20260506234326 | 67 | 0.0 | 0.0 | 0.00 | 0.27 | 0.27 | 84 | 1008.6 | |
| 20260506234022 | 67 | 0.0 | 0.0 | 0.00 | 0.27 | 0.27 | 84 | 1008.9 | |
| 20260506233847 | 68 | 0.0 | 0.0 | 0.00 | 0.27 | 0.27 | 84 | 1008.4 | |
| 20260506233523 | 67 | 0.0 | 0.0 | 0.00 | 0.27 | 0.27 | 83 | 1009.0 | |
| 20260506233405 | 68 | 0.0 | 0.0 | 0.00 | 0.27 | 0.27 | 83 | 1008.3 | |
| 20260506233042 | 67 | 0.0 | 0.0 | 0.00 | 0.27 | 0.27 | 82 | 1008.7 | |
| 20260506232844 | 68 | 0.0 | 0.0 | 0.00 | 0.27 | 0.27 | 83 | 1008.2 | |
| 20260506232522 | 67 | 0.0 | 0.0 | 0.00 | 0.27 | 0.27 | 82 | 1008.9 | |
| 20260506232345 | 68 | 0.0 | 0.0 | 0.00 | 0.27 | 0.27 | 83 | 1008.4 | |
| 20260506232024 | 68 | 0.0 | 0.0 | 0.00 | 0.27 | 0.27 | 82 | 1008.8 | |
| 20260506231837 | 68 | 0.0 | 0.0 | 0.00 | 0.27 | 0.27 | 83 | 1008.4 | |
| 20260506231543 | 68 | 0.0 | 0.0 | 0.00 | 0.27 | 0.27 | 82 | 1008.8 | |
| 20260506231335 | 68 | 0.0 | 0.0 | 0.00 | 0.27 | 0.27 | 82 | 1008.1 | |
| 20260506231022 | 68 | 0.0 | 0.0 | 0.00 | 0.27 | 0.27 | 82 | 1008.6 | |
| 20260506230849 | 68 | 198 | 0.0 | 0.0 | 0.00 | 0.27 | 0.27 | 82 | 1008.1 |
| 20260506230522 | 68 | 0.0 | 0.0 | 0.00 | 0.27 | 0.27 | 82 | 1008.6 | |
| 20260506230038 | 68 | 0 | 0.0 | 0.0 | 0.00 | 0.27 | 0.27 | 82 | 1008.6 |
| 20260506225913 | 68 | 198 | 0.0 | 0.0 | 0.00 | 0.27 | 0.27 | 82 | 1008.1 |
| 20260506225524 | 68 | 0 | 0.0 | 0.0 | 0.00 | 0.27 | 0.27 | 81 | 1008.5 |
| 20260506225343 | 69 | 183 | 0.0 | 0.0 | 0.00 | 0.27 | 0.27 | 82 | 1008.1 |
| 20260506225023 | 68 | 0 | 0.0 | 0.0 | 0.00 | 0.27 | 0.27 | 82 | 1008.5 |
| 20260506224835 | 69 | 183 | 0.0 | 0.0 | 0.00 | 0.27 | 0.27 | 83 | 1008.0 |
| 20260506224547 | 68 | 0 | 0.0 | 0.0 | 0.00 | 0.27 | 0.27 | 82 | 1008.4 |
| 20260506224355 | 69 | 183 | 0.0 | 0.0 | 0.00 | 0.27 | 0.27 | 83 | 1008.1 |
| 20260506224024 | 68 | 0 | 0.0 | 0.0 | 0.00 | 0.27 | 0.27 | 81 | 1008.5 |
| 20260506223846 | 69 | 183 | 0.0 | 0.0 | 0.00 | 0.27 | 0.27 | 82 | 1008.1 |
| 20260506223522 | 68 | 0 | 0.0 | 0.0 | 0.00 | 0.27 | 0.27 | 81 | 1008.6 |
| 20260506223345 | 69 | 183 | 0.0 | 0.0 | 0.00 | 0.27 | 0.27 | 81 | 1008.0 |
| 20260506223037 | 68 | 0 | 0.0 | 2.0 | 0.00 | 0.27 | 0.27 | 80 | 1008.4 |
| 20260506222837 | 69 | 169 | 0.0 | 2.0 | 0.00 | 0.27 | 0.27 | 81 | 1008.0 |
| 20260506222523 | 68 | 0 | 0.0 | 2.0 | 0.00 | 0.27 | 0.27 | 81 | 1008.4 |
| 20260506222353 | 69 | 176 | 0.0 | 2.0 | 0.00 | 0.27 | 0.27 | 81 | 1007.9 |
| 20260506222023 | 68 | 0 | 0.0 | 2.0 | 0.00 | 0.27 | 0.27 | 80 | 1008.4 |
| 20260506221852 | 69 | 177 | 0.0 | 2.0 | 0.00 | 0.27 | 0.27 | 81 | 1007.9 |
| 20260506221536 | 68 | 0 | 0.0 | 2.0 | 0.00 | 0.27 | 0.27 | 80 | 1008.3 |
| 20260506221345 | 69 | 177 | 0.0 | 2.0 | 0.00 | 0.27 | 0.27 | 82 | 1007.9 |
| 20260506221025 | 68 | 0 | 0.0 | 2.0 | 0.00 | 0.27 | 0.27 | 80 | 1008.3 |
| 20260506220843 | 69 | 178 | 0.0 | 0.0 | 0.00 | 0.27 | 0.27 | 81 | 1008.0 |
| 20260506220522 | 68 | 0 | 0.0 | 3.0 | 0.00 | 0.27 | 0.27 | 81 | 1008.4 |
| 20260506220335 | 69 | 159 | 0.0 | 1.0 | 0.00 | 0.27 | 0.27 | 80 | 1007.9 |
| 20260506220044 | 68 | 0 | 0.0 | 3.0 | 0.00 | 0.27 | 0.27 | 81 | 1008.3 |
| 20260506215853 | 69 | 159 | 0.0 | 3.0 | 0.00 | 0.27 | 0.27 | 82 | 1007.9 |
| 20260506215524 | 68 | 0 | 0.0 | 3.0 | 0.00 | 0.27 | 0.27 | 81 | 1008.3 |
| 20260506215330 | 69 | 173 | 0.0 | 0.0 | 0.00 | 0.27 | 0.27 | 81 | 1008.0 |
| 20260506215024 | 68 | 0 | 0.0 | 3.0 | 0.00 | 0.27 | 0.27 | 80 | 1008.3 |
| 20260506214846 | 69 | 174 | 0.0 | 3.0 | 0.00 | 0.27 | 0.27 | 81 | 1008.1 |
| 20260506214537 | 68 | 0 | 0.0 | 3.0 | 0.00 | 0.27 | 0.27 | 80 | 1008.4 |
| 20260506214339 | 69 | 169 | 0.0 | 3.0 | 0.00 | 0.27 | 0.27 | 81 | 1008.0 |
| 20260506214026 | 68 | 0 | 0.0 | 1.0 | 0.00 | 0.27 | 0.27 | 80 | 1008.4 |
| 20260506213834 | 69 | 166 | 0.0 | 1.0 | 0.00 | 0.27 | 0.27 | 81 | 1007.9 |
| 20260506213522 | 68 | 0 | 0.0 | 2.0 | 0.00 | 0.27 | 0.27 | 80 | 1008.3 |
| 20260506213349 | 69 | 179 | 0.0 | 2.0 | 0.00 | 0.27 | 0.27 | 80 | 1008.0 |
| 20260506213037 | 68 | 0 | 0.0 | 8.0 | 0.00 | 0.27 | 0.27 | 79 | 1008.3 |
| 20260506212840 | 69 | 142 | 0.0 | 7.0 | 0.00 | 0.27 | 0.27 | 80 | 1007.8 |
| 20260506212527 | 68 | 0 | 0.0 | 8.0 | 0.00 | 0.27 | 0.27 | 80 | 1008.2 |
| 20260506212338 | 69 | 168 | 2.0 | 7.0 | 0.00 | 0.27 | 0.27 | 80 | 1007.8 |
| 20260506212025 | 68 | 252 | 0.0 | 4.0 | 0.00 | 0.27 | 0.27 | 80 | 1008.2 |
| 20260506211855 | 69 | 183 | 1.0 | 4.0 | 0.00 | 0.27 | 0.27 | 80 | 1007.8 |
| 20260506211542 | 68 | 0 | 0.0 | 4.0 | 0.00 | 0.27 | 0.27 | 80 | 1008.1 |
| 20260506211346 | 69 | 190 | 0.0 | 4.0 | 0.00 | 0.27 | 0.27 | 80 | 1007.7 |
| 20260506211023 | 68 | 0 | 0.0 | 5.0 | 0.00 | 0.27 | 0.27 | 80 | 1008.0 |
| 20260506210902 | 69 | 175 | 1.0 | 5.0 | 0.00 | 0.27 | 0.27 | 80 | 1007.7 |
| 20260506210525 | 68 | 0 | 0.0 | 9.0 | 0.00 | 0.27 | 0.27 | 79 | 1008.0 |
| 20260506210331 | 69 | 173 | 0.0 | 8.0 | 0.00 | 0.27 | 0.27 | 80 | 1007.7 |
| 20260506210037 | 68 | 0 | 1.0 | 9.0 | 0.00 | 0.27 | 0.27 | 79 | 1007.9 |
| 20260506205835 | 69 | 171 | 2.0 | 8.0 | 0.00 | 0.27 | 0.27 | 80 | 1007.6 |
| 20260506205524 | 68 | 202 | 0.0 | 8.0 | 0.00 | 0.27 | 0.27 | 80 | 1007.8 |
| 20260506205330 | 69 | 188 | 0.0 | 7.0 | 0.00 | 0.27 | 0.27 | 80 | 1007.3 |
| 20260506205024 | 68 | 0 | 0.0 | 8.0 | 0.00 | 0.27 | 0.27 | 80 | 1007.8 |
| 20260506204831 | 69 | 212 | 1.0 | 7.0 | 0.00 | 0.27 | 0.27 | 80 | 1007.4 |
| 20260506204539 | 68 | 0 | 0.0 | 6.0 | 0.00 | 0.27 | 0.27 | 80 | 1007.8 |
| 20260506204330 | 68 | 156 | 0.0 | 6.0 | 0.00 | 0.27 | 0.27 | 81 | 1007.5 |
| 20260506204024 | 68 | 0 | 0.0 | 6.0 | 0.00 | 0.27 | 0.27 | 80 | 1007.9 |
| 20260506203829 | 68 | 179 | 1.0 | 5.0 | 0.00 | 0.27 | 0.27 | 80 | 1007.5 |
| 20260506203524 | 68 | 0 | 0.0 | 4.0 | 0.00 | 0.27 | 0.27 | 79 | 1007.7 |
| 20260506203350 | 68 | 169 | 0.0 | 4.0 | 0.00 | 0.27 | 0.27 | 80 | 1007.4 |
| 20260506203037 | 68 | 0 | 0.0 | 5.0 | 0.00 | 0.27 | 0.27 | 79 | 1007.7 |
| 20260506202845 | 69 | 201 | 1.0 | 5.0 | 0.00 | 0.27 | 0.27 | 80 | 1007.3 |
| 20260506202524 | 68 | 0 | 0.0 | 5.0 | 0.00 | 0.27 | 0.27 | 80 | 1007.7 |
| 20260506202406 | 69 | 160 | 1.0 | 5.0 | 0.00 | 0.27 | 0.27 | 80 | 1007.6 |
| 20260506202025 | 68 | 0 | 0.0 | 8.0 | 0.00 | 0.27 | 0.27 | 79 | 1008.0 |
| 20260506201841 | 69 | 159 | 0.0 | 7.0 | 0.00 | 0.27 | 0.27 | 79 | 1007.6 |
| 20260506201543 | 68 | 232 | 0.0 | 8.0 | 0.00 | 0.27 | 0.27 | 79 | 1007.9 |
| 20260506201345 | 69 | 269 | 2.0 | 7.0 | 0.00 | 0.27 | 0.27 | 80 | 1007.6 |
| 20260506201024 | 68 | 0 | 0.0 | 4.0 | 0.00 | 0.27 | 0.27 | 80 | 1007.9 |
| 20260506200906 | 69 | 5 | 1.0 | 4.0 | 0.00 | 0.27 | 0.27 | 80 | 1007.5 |
| 20260506200524 | 68 | 0 | 0.0 | 4.0 | 0.00 | 0.27 | 0.27 | 79 | 1008.0 |
| 20260506200343 | 69 | 211 | 0.0 | 3.0 | 0.00 | 0.27 | 0.27 | 80 | 1007.6 |
| 20260506200041 | 68 | 0 | 0.0 | 3.0 | 0.00 | 0.27 | 0.27 | 80 | 1007.9 |
| 20260506195902 | 68 | 185 | 0.0 | 3.0 | 0.00 | 0.27 | 0.27 | 80 | 1007.6 |
| 20260506195526 | 68 | 0 | 0.0 | 6.0 | 0.00 | 0.27 | 0.27 | 80 | 1008.0 |
| 20260506195357 | 68 | 230 | 0.0 | 5.0 | 0.00 | 0.27 | 0.27 | 80 | 1007.6 |
| 20260506195025 | 68 | 0 | 0.0 | 7.0 | 0.00 | 0.27 | 0.27 | 79 | 1007.9 |
| 20260506194835 | 68 | 200 | 1.0 | 6.0 | 0.00 | 0.27 | 0.27 | 80 | 1007.5 |
| 20260506194544 | 68 | 0 | 0.0 | 7.0 | 0.00 | 0.27 | 0.27 | 80 | 1008.0 |
| 20260506194356 | 68 | 165 | 2.0 | 6.0 | 0.00 | 0.27 | 0.27 | 81 | 1007.7 |
| 20260506194028 | 68 | 0 | 0.0 | 3.0 | 0.00 | 0.27 | 0.27 | 80 | 1008.2 |
| 20260506193852 | 68 | 221 | 0.0 | 3.0 | 0.00 | 0.27 | 0.27 | 79 | 1007.7 |
| 20260506193524 | 68 | 253 | 0.0 | 4.0 | 0.00 | 0.27 | 0.27 | 81 | 1008.1 |
| 20260506193348 | 68 | 173 | 0.0 | 4.0 | 0.00 | 0.27 | 0.27 | 81 | 1007.6 |
| 20260506193043 | 67 | 216 | 0.0 | 7.0 | 0.00 | 0.27 | 0.27 | 81 | 1008.0 |
| 20260506192845 | 68 | 193 | 0.0 | 6.0 | 0.00 | 0.27 | 0.27 | 80 | 1007.7 |
| 20260506192524 | 67 | 0 | 0.0 | 7.0 | 0.00 | 0.27 | 0.27 | 80 | 1008.1 |
| 20260506192345 | 68 | 215 | 1.0 | 6.0 | 0.00 | 0.27 | 0.27 | 80 | 1007.8 |
| 20260506192024 | 67 | 0 | 0.0 | 8.0 | 0.00 | 0.27 | 0.27 | 80 | 1008.1 |
| 20260506191843 | 68 | 109 | 1.0 | 7.0 | 0.00 | 0.27 | 0.27 | 82 | 1007.7 |
| 20260506191544 | 67 | 0 | 1.0 | 8.0 | 0.00 | 0.27 | 0.27 | 79 | 1008.2 |
| 20260506191340 | 68 | 181 | 1.0 | 7.0 | 0.00 | 0.27 | 0.27 | 81 | 1007.7 |
| 20260506191025 | 67 | 0 | 2.0 | 8.0 | 0.00 | 0.27 | 0.27 | 82 | 1008.2 |
| 20260506190836 | 67 | 125 | 1.0 | 4.0 | 0.00 | 0.27 | 0.27 | 82 | 1007.8 |
| 20260506190524 | 67 | 0 | 0.0 | 4.0 | 0.00 | 0.27 | 0.27 | 82 | 1008.3 |
| 20260506190336 | 67 | 194 | 0.0 | 4.0 | 0.00 | 0.27 | 0.27 | 82 | 1007.8 |
| 20260506190044 | 66 | 0 | 0.0 | 8.0 | 0.00 | 0.27 | 0.27 | 81 | 1008.2 |